Location: Albuquerque Trailhead
(34.7934°N, 106.3736°W)
Time: 09:54:49
(UTC+00:00)

Exosat Rocket - Pass Details

Date: 01 November 2021
Orbit: 759 x 2516 km, 72.3° (Epoch: 08 December)

Event Time Altitude Azimuth Distance (km) Brightness Sun altitude
Exits shadow 08:07:55 14° 87° (E) 3,920 7.3 -63.1°
Maximum altitude 08:08:54 14° 81° (E) 3,970 7.3 -62.9°
Drops below altitude 10° 08:13:58 10° 55° (NE) 4,601 7.8 -62.2°
Sets 08:20:20 0° 35° (NE) 5,916 8.5 -61.2°
